BSAT-3A

Last updated on May 23, 2019, 3:05 a.m. UTC

1 32019U 07036B   19142.01357499 -.00000359  00000-0  00000+0 0  9993
2 32019   0.0439 228.4343 0000942 286.7247 198.9347  1.00273305 43166
UTC
Height (km)
Latitude
Longitude
Inclination
Orbital Period
UTC large
Height (km)
Speed (km/s)
/
Latitude / Longitude
Inclination (degrees)
Orbital Period (minutes)
Azimuth
Elevation
Range (km)
Doppler Factor
iOS Compass Heading
iOS Angle

Next 30 passes for location: Hong Kong

Rise time Rise Azimuth (degrees) Set time Set Azimuth (degrees) Duration Max altitude (degrees)

No matching passes for this satellites